EZY42MY LPFR-EGGW

Flight info

Callsign EZY42MY
Flight time N/A
Altitude 36000
Route ELVAR DCT BARDI DCT ZMR DCT NUBLO DCT RONSI DCT DELOG DCT FUJTI DCT IDNUN DCT ATGEB DCT DIKRO DCT ELDOP DCT LUGIS UM185 TELTU
Aircraft A319/M-SDE3FGHIRWY/LB1

Departure

Time 2026-05-04 19:15
Airport Faro - Gago Coutinho International Airport (LPFR)

Arrival

Time N/A
Airport London Luton Airport (EGGW)
Time Latitude Longitude Altitude Speed Heading
2026-05-04 18:40 37.01870 -7.96532 19 ft 0 kts
2026-05-04 19:07 37.01856 -7.96535 22 ft 4 kts 11°
2026-05-04 19:07 37.01830 -7.96543 20 ft 4 kts 18°
2026-05-04 19:07 37.01805 -7.96556 21 ft 4 kts 38°
2026-05-04 19:07 37.01793 -7.96578 22 ft 2 kts 100°
2026-05-04 19:08 37.01794 -7.96584 21 ft 1 kts 101°
2026-05-04 19:10 37.01794 -7.96583 22 ft 1 kts 101°
2026-05-04 19:10 37.01789 -7.96556 22 ft 5 kts 102°
2026-05-04 19:11 37.01768 -7.96523 20 ft 5 kts 155°
2026-05-04 19:11 37.01728 -7.96527 20 ft 8 kts 189°
2026-05-04 19:11 37.01674 -7.96539 20 ft 8 kts 190°
2026-05-04 19:11 37.01622 -7.96519 21 ft 11 kts 123°
2026-05-04 19:12 37.01603 -7.96413 20 ft 13 kts 100°
2026-05-04 19:12 37.01570 -7.96191 22 ft 13 kts 101°
2026-05-04 19:12 37.01553 -7.96078 21 ft 13 kts 101°
2026-05-04 19:13 37.01537 -7.95963 19 ft 13 kts 97°
2026-05-04 19:13 37.01517 -7.95864 18 ft 8 kts 120°
2026-05-04 19:13 37.01470 -7.95837 19 ft 7 kts 185°
2026-05-04 19:13 37.01427 -7.95850 19 ft 6 kts 193°
2026-05-04 19:14 37.01387 -7.95860 22 ft 5 kts 191°
2026-05-04 19:14 37.01356 -7.95874 22 ft 5 kts 218°
2026-05-04 19:14 37.01350 -7.95925 21 ft 0 kts 278°
2026-05-04 19:15 37.01366 -7.96038 21 ft 45 kts 279°
2026-05-04 19:15 37.01463 -7.96725 25 ft 112 kts 280°
2026-05-04 19:15 37.01632 -7.97911 102 ft 154 kts 280°
2026-05-04 19:15 37.01833 -7.99176 732 ft 146 kts 281°
2026-05-04 19:16 37.02019 -8.00436 1232 ft 151 kts 280°
2026-05-04 19:16 37.02217 -8.01816 1526 ft 172 kts 280°
2026-05-04 19:16 37.02506 -8.03375 1784 ft 198 kts 294°
2026-05-04 19:16 37.03505 -8.04678 2086 ft 224 kts 335°
2026-05-04 19:17 37.05123 -8.05009 2482 ft 250 kts 359°
2026-05-04 19:17 37.06905 -8.04926 3205 ft 260 kts
2026-05-04 19:17 37.08727 -8.04743 4100 ft 264 kts
2026-05-04 19:17 37.10570 -8.04541 5001 ft 268 kts
2026-05-04 19:18 37.12438 -8.04346 5887 ft 271 kts
2026-05-04 19:18 37.14309 -8.04164 6727 ft 275 kts
2026-05-04 19:18 37.16231 -8.03994 7547 ft 279 kts
2026-05-04 19:18 37.18178 -8.03835 8352 ft 282 kts
2026-05-04 19:19 37.20153 -8.03677 9154 ft 286 kts
2026-05-04 19:19 37.22150 -8.03518 9921 ft 289 kts
2026-05-04 19:19 37.24193 -8.03356 10458 ft 303 kts
2026-05-04 19:19 37.26382 -8.03181 10675 ft 327 kts
2026-05-04 19:20 37.28732 -8.02991 10870 ft 348 kts
2026-05-04 19:20 37.31182 -8.02796 11391 ft 357 kts
2026-05-04 19:20 37.33680 -8.02600 12048 ft 361 kts
2026-05-04 19:20 37.36206 -8.02400 12722 ft 365 kts
2026-05-04 19:21 37.38759 -8.02196 13378 ft 368 kts
2026-05-04 19:21 37.41329 -8.01989 14008 ft 372 kts
2026-05-04 19:21 37.43922 -8.01783 14631 ft 375 kts
2026-05-04 19:21 37.46541 -8.01577 15239 ft 379 kts
2026-05-04 19:22 37.49150 -8.01371 15833 ft 382 kts
2026-05-04 19:22 37.51819 -8.01160 16416 ft 385 kts
2026-05-04 19:22 37.54505 -8.00949 16985 ft 388 kts
2026-05-04 19:22 37.57212 -8.00735 17546 ft 391 kts
2026-05-04 19:23 37.59944 -8.00517 18090 ft 395 kts
2026-05-04 19:23 37.62695 -8.00295 18624 ft 398 kts
2026-05-04 19:23 37.65474 -8.00070 19158 ft 401 kts
2026-05-04 19:23 37.68268 -7.99841 19677 ft 404 kts
2026-05-04 19:24 37.71085 -7.99612 20181 ft 407 kts
2026-05-04 19:24 37.73917 -7.99384 20663 ft 410 kts
2026-05-04 19:24 37.76773 -7.99155 21120 ft 413 kts
2026-05-04 19:24 37.79649 -7.98927 21571 ft 415 kts
2026-05-04 19:25 37.82547 -7.98697 22008 ft 418 kts
2026-05-04 19:25 37.85465 -7.98466 22432 ft 421 kts
2026-05-04 19:25 37.88362 -7.98234 22837 ft 423 kts
2026-05-04 19:25 37.91310 -7.97997 23233 ft 426 kts
2026-05-04 19:26 37.94276 -7.97758 23619 ft 428 kts
2026-05-04 19:26 37.97258 -7.97517 23994 ft 431 kts
2026-05-04 19:26 38.00261 -7.97276 24359 ft 433 kts
2026-05-04 19:26 38.03283 -7.97034 24717 ft 436 kts
2026-05-04 19:27 38.06320 -7.96788 25070 ft 438 kts
2026-05-04 19:27 38.09370 -7.96538 25418 ft 440 kts
2026-05-04 19:27 38.12434 -7.96286 25758 ft 443 kts
2026-05-04 19:27 38.15524 -7.96030 26090 ft 445 kts
2026-05-04 19:28 38.18627 -7.95775 26416 ft 447 kts
2026-05-04 19:28 38.21741 -7.95523 26727 ft 449 kts
2026-05-04 19:28 38.24871 -7.95271 27030 ft 451 kts
2026-05-04 19:28 38.26954 -7.95103 27230 ft 453 kts
2026-05-04 19:29 38.30108 -7.94847 27510 ft 455 kts
2026-05-04 19:29 38.33278 -7.94586 27784 ft 457 kts
2026-05-04 19:29 38.36455 -7.94324 28057 ft 459 kts
2026-05-04 19:29 38.39656 -7.94062 28327 ft 461 kts
2026-05-04 19:30 38.42857 -7.93799 28592 ft 463 kts
2026-05-04 19:30 38.46080 -7.93535 28849 ft 464 kts
2026-05-04 19:30 38.49323 -7.93272 29095 ft 466 kts
2026-05-04 19:30 38.52565 -7.93010 29399 ft 466 kts
2026-05-04 19:31 38.55760 -7.92750 29758 ft 465 kts
2026-05-04 19:31 38.58993 -7.92484 30092 ft 465 kts
2026-05-04 19:31 38.62208 -7.91943 30419 ft 465 kts 12°
2026-05-04 19:31 38.65299 -7.90735 30751 ft 465 kts 22°
2026-05-04 19:32 38.68192 -7.88893 31079 ft 464 kts 31°
2026-05-04 19:32 38.70810 -7.86465 31389 ft 464 kts 41°
2026-05-04 19:32 38.73147 -7.83614 31707 ft 464 kts 44°
2026-05-04 19:32 38.75460 -7.80728 32022 ft 463 kts 44°
2026-05-04 19:33 38.77775 -7.77845 32350 ft 463 kts 44°
2026-05-04 19:33 38.80057 -7.75005 32660 ft 462 kts 44°
2026-05-04 19:33 38.82362 -7.72133 32973 ft 461 kts 44°
2026-05-04 19:33 38.84663 -7.69264 33285 ft 460 kts 44°
2026-05-04 19:34 38.86960 -7.66397 33586 ft 460 kts 44°
2026-05-04 19:34 38.89258 -7.63521 33876 ft 460 kts 44°
2026-05-04 19:34 38.91548 -7.60650 34162 ft 459 kts 44°
2026-05-04 19:34 38.93806 -7.57821 34455 ft 458 kts 44°
2026-05-04 19:35 38.96089 -7.54961 34756 ft 458 kts 44°
2026-05-04 19:35 38.98373 -7.52098 35040 ft 457 kts 44°
2026-05-04 19:35 39.00649 -7.49241 35308 ft 456 kts 44°
2026-05-04 19:35 39.02920 -7.46386 35564 ft 456 kts 44°
2026-05-04 19:36 39.05182 -7.43538 35809 ft 455 kts 44°
2026-05-04 19:36 39.07444 -7.40686 35972 ft 455 kts 44°
2026-05-04 19:36 39.09708 -7.37830 36010 ft 455 kts 44°
2026-05-04 19:37 39.14239 -7.32107 36009 ft 455 kts 44°
2026-05-04 19:37 39.18730 -7.26409 36009 ft 456 kts 44°
2026-05-04 19:38 39.23639 -7.21262 36010 ft 455 kts 29°
2026-05-04 19:38 39.29282 -7.17510 36011 ft 455 kts 26°
2026-05-04 19:39 39.34884 -7.13796 36009 ft 455 kts 27°
2026-05-04 19:39 39.40513 -7.10043 36009 ft 455 kts 27°
2026-05-04 19:40 39.46155 -7.06288 36009 ft 455 kts 27°
2026-05-04 19:40 39.51802 -7.02532 36012 ft 455 kts 27°
2026-05-04 19:41 39.57438 -6.98769 36014 ft 455 kts 27°
2026-05-04 19:41 39.63036 -6.95035 36013 ft 454 kts 27°
2026-05-04 19:42 39.68656 -6.91276 36011 ft 454 kts 27°
2026-05-04 19:42 39.74274 -6.87504 36011 ft 454 kts 27°
2026-05-04 19:43 39.79880 -6.83734 36006 ft 453 kts 27°
2026-05-04 19:43 39.85489 -6.79958 36008 ft 453 kts 27°
2026-05-04 19:44 39.91071 -6.76190 36000 ft 454 kts 27°
2026-05-04 19:44 39.96680 -6.72400 35999 ft 454 kts 27°
2026-05-04 19:45 40.02287 -6.68599 36001 ft 454 kts 27°
2026-05-04 19:45 40.07902 -6.64791 36006 ft 455 kts 27°
2026-05-04 19:46 40.13525 -6.60976 36009 ft 455 kts 27°
2026-05-04 19:46 40.19146 -6.57148 36012 ft 455 kts 27°
2026-05-04 19:47 40.24731 -6.53337 36012 ft 456 kts 27°
2026-05-04 19:47 40.30354 -6.49495 36015 ft 456 kts 27°
2026-05-04 19:48 40.35980 -6.45633 36000 ft 456 kts 27°
2026-05-04 19:48 40.41617 -6.41765 35994 ft 457 kts 27°
2026-05-04 19:49 40.47269 -6.37895 35999 ft 458 kts 27°
2026-05-04 19:49 40.52923 -6.34005 36002 ft 458 kts 27°
2026-05-04 19:50 40.58548 -6.30120 36005 ft 459 kts 27°
2026-05-04 19:50 40.64204 -6.26214 36006 ft 459 kts 27°
2026-05-04 19:51 40.69864 -6.22307 36009 ft 459 kts 27°
2026-05-04 19:51 40.75518 -6.18391 36011 ft 458 kts 27°
2026-05-04 19:52 40.81162 -6.14472 36012 ft 458 kts 27°
2026-05-04 19:52 40.86811 -6.10549 36016 ft 458 kts 27°
2026-05-04 19:53 40.92418 -6.06643 36015 ft 458 kts 27°
2026-05-04 19:53 40.98065 -6.02703 36015 ft 458 kts 27°
2026-05-04 19:54 41.03701 -5.98766 36014 ft 458 kts 27°
2026-05-04 19:54 41.09349 -5.94808 36015 ft 458 kts 27°
2026-05-04 19:55 41.14996 -5.90852 36015 ft 458 kts 27°
2026-05-04 19:55 41.20635 -5.86890 36013 ft 458 kts 27°
2026-05-04 19:56 41.26241 -5.82954 36011 ft 458 kts 27°
2026-05-04 19:56 41.31877 -5.78976 36010 ft 458 kts 27°
2026-05-04 19:57 41.37520 -5.74980 36013 ft 458 kts 27°
2026-05-04 19:57 41.43156 -5.70983 36016 ft 458 kts 27°
2026-05-04 19:58 41.48788 -5.66989 36020 ft 458 kts 27°
2026-05-04 19:58 41.54432 -5.63178 36019 ft 457 kts 22°
2026-05-04 19:59 41.60302 -5.59874 36018 ft 457 kts 22°
2026-05-04 19:59 41.66165 -5.56570 36015 ft 457 kts 22°
2026-05-04 20:00 41.72028 -5.53260 36015 ft 457 kts 22°
2026-05-04 20:00 41.77895 -5.49942 36016 ft 457 kts 22°
2026-05-04 20:01 41.83761 -5.46613 36017 ft 457 kts 22°
2026-05-04 20:01 41.89622 -5.43279 36017 ft 457 kts 22°
2026-05-04 20:02 41.95447 -5.39966 36016 ft 457 kts 22°
2026-05-04 20:02 42.01320 -5.36614 36013 ft 457 kts 22°
2026-05-04 20:03 42.07178 -5.33259 36012 ft 457 kts 22°
2026-05-04 20:03 42.13029 -5.29900 36011 ft 457 kts 22°
2026-05-04 20:04 42.18853 -5.26564 36009 ft 457 kts 22°
2026-05-04 20:04 42.24710 -5.23195 36011 ft 457 kts 22°
2026-05-04 20:05 42.30577 -5.19816 36010 ft 458 kts 22°
2026-05-04 20:05 42.36445 -5.16425 36012 ft 458 kts 22°
2026-05-04 20:06 42.42275 -5.13040 36011 ft 458 kts 22°
2026-05-04 20:06 42.48140 -5.09642 36013 ft 458 kts 22°
2026-05-04 20:07 42.54008 -5.06248 36013 ft 458 kts 22°
2026-05-04 20:07 42.59879 -5.02828 36014 ft 458 kts 23°
2026-05-04 20:08 42.65714 -4.99412 36012 ft 458 kts 22°
2026-05-04 20:08 42.71586 -4.95984 36012 ft 459 kts 22°
2026-05-04 20:09 42.77455 -4.92545 36007 ft 459 kts 23°
2026-05-04 20:09 42.83338 -4.89091 36001 ft 460 kts 23°
2026-05-04 20:10 42.89189 -4.85653 35995 ft 461 kts 23°
2026-05-04 20:10 42.95093 -4.82172 36001 ft 462 kts 23°
2026-05-04 20:11 43.00005 -4.79263 35991 ft 463 kts 23°
2026-05-04 20:11 43.05933 -4.75746 35994 ft 463 kts 23°
2026-05-04 20:12 43.11825 -4.72253 36021 ft 463 kts 23°
2026-05-04 20:12 43.17738 -4.68742 36034 ft 461 kts 23°
2026-05-04 20:13 43.23637 -4.65236 36017 ft 461 kts 23°
2026-05-04 20:13 43.29486 -4.61737 36037 ft 460 kts 23°
2026-05-04 20:14 43.35346 -4.58234 36033 ft 458 kts 23°
2026-05-04 20:14 43.41185 -4.54733 36036 ft 456 kts 23°
2026-05-04 20:15 43.46963 -4.51254 36035 ft 455 kts 23°
2026-05-04 20:15 43.52758 -4.47768 36032 ft 454 kts 23°
2026-05-04 20:16 43.58557 -4.44276 36030 ft 454 kts 23°
2026-05-04 20:16 43.64331 -4.40778 36026 ft 453 kts 23°
2026-05-04 20:17 43.70111 -4.37274 36025 ft 453 kts 23°
2026-05-04 20:17 43.75856 -4.33790 36023 ft 453 kts 23°
2026-05-04 20:18 43.81628 -4.30275 36022 ft 453 kts 23°
2026-05-04 20:18 43.87401 -4.26758 36021 ft 453 kts 23°
2026-05-04 20:19 43.93171 -4.23237 36020 ft 453 kts 23°
2026-05-04 20:19 43.98941 -4.19701 36019 ft 453 kts 23°
2026-05-04 20:20 44.04676 -4.16182 36019 ft 453 kts 23°
2026-05-04 20:20 44.10445 -4.12629 36018 ft 453 kts 23°
2026-05-04 20:21 44.16220 -4.09073 36017 ft 453 kts 23°
2026-05-04 20:21 44.24825 -4.03764 36016 ft 453 kts 23°
2026-05-04 20:22 44.30590 -4.00188 36016 ft 453 kts 23°
2026-05-04 20:22 44.36383 -3.96680 36016 ft 452 kts 21°
2026-05-04 20:23 44.42248 -3.93463 36015 ft 452 kts 20°
2026-05-04 20:23 44.48095 -3.90331 36014 ft 452 kts 20°
2026-05-04 20:24 44.53955 -3.87116 36014 ft 452 kts 21°
2026-05-04 20:24 44.59810 -3.83841 36013 ft 452 kts 21°
2026-05-04 20:25 44.65662 -3.80562 36013 ft 452 kts 21°
2026-05-04 20:25 44.71512 -3.77292 36012 ft 452 kts 21°
2026-05-04 20:26 44.77362 -3.74017 36014 ft 452 kts 21°
2026-05-04 20:26 44.83214 -3.70724 36014 ft 452 kts 21°
2026-05-04 20:27 44.89062 -3.67428 36014 ft 452 kts 21°
2026-05-04 20:27 44.94909 -3.64136 36014 ft 452 kts 21°
2026-05-04 20:28 45.00726 -3.60849 36013 ft 452 kts 21°
2026-05-04 20:28 45.06575 -3.57533 36012 ft 452 kts 21°
2026-05-04 20:29 45.12419 -3.54221 36011 ft 452 kts 21°
2026-05-04 20:29 45.18271 -3.50894 36011 ft 452 kts 21°
2026-05-04 20:30 45.24072 -3.47577 36011 ft 452 kts 21°
2026-05-04 20:30 45.29922 -3.44235 36012 ft 452 kts 21°
2026-05-04 20:31 45.35772 -3.40897 36011 ft 452 kts 21°
2026-05-04 20:31 45.41615 -3.37543 36009 ft 452 kts 21°
2026-05-04 20:32 45.47407 -3.34197 36006 ft 452 kts 21°
2026-05-04 20:32 45.53240 -3.30830 36003 ft 452 kts 21°
2026-05-04 20:33 45.59077 -3.27474 36004 ft 452 kts 21°
2026-05-04 20:33 45.64912 -3.24091 36004 ft 452 kts 21°
2026-05-04 20:34 45.70743 -3.20699 36008 ft 452 kts 21°
2026-05-04 20:34 45.76575 -3.17309 36008 ft 452 kts 21°
2026-05-04 20:35 45.82372 -3.13930 36006 ft 452 kts 21°
2026-05-04 20:35 45.88207 -3.10514 36007 ft 452 kts 21°
2026-05-04 20:36 45.94031 -3.07098 36010 ft 452 kts 21°
2026-05-04 20:36 45.99868 -3.03679 36010 ft 452 kts 21°
2026-05-04 20:37 46.05713 -3.00239 36011 ft 452 kts 22°
2026-05-04 20:37 46.11547 -2.96796 36010 ft 452 kts 22°
2026-05-04 20:38 46.17336 -2.93376 36009 ft 452 kts 22°
2026-05-04 20:38 46.23162 -2.89928 36007 ft 452 kts 22°
2026-05-04 20:39 46.29102 -2.86917 36007 ft 452 kts 14°
2026-05-04 20:39 46.35180 -2.84606 36009 ft 452 kts 14°
2026-05-04 20:40 46.41261 -2.82289 36011 ft 452 kts 14°
2026-05-04 20:40 46.47350 -2.79951 36011 ft 452 kts 14°
2026-05-04 20:41 46.53394 -2.77609 36011 ft 452 kts 14°
2026-05-04 20:41 46.59482 -2.75268 36013 ft 452 kts 14°
2026-05-04 20:42 46.65569 -2.72934 36014 ft 452 kts 14°
2026-05-04 20:42 46.71659 -2.70576 36014 ft 452 kts 14°
2026-05-04 20:43 46.77734 -2.68215 36013 ft 452 kts 14°
2026-05-04 20:43 46.83816 -2.65851 36013 ft 452 kts 14°
2026-05-04 20:44 46.89900 -2.63479 36013 ft 452 kts 14°
2026-05-04 20:44 46.95941 -2.61110 36012 ft 452 kts 14°
2026-05-04 20:45 47.02024 -2.58733 36015 ft 452 kts 14°
2026-05-04 20:45 47.08095 -2.56355 36007 ft 451 kts 14°
2026-05-04 20:46 47.14069 -2.53478 36005 ft 452 kts 20°
2026-05-04 20:46 47.19916 -2.50243 36001 ft 452 kts 20°
2026-05-04 20:47 47.25809 -2.46997 36004 ft 452 kts 20°
2026-05-04 20:47 47.31696 -2.43733 36004 ft 452 kts 20°
2026-05-04 20:48 47.37584 -2.40464 36005 ft 452 kts 20°
2026-05-04 20:48 47.43475 -2.37178 36008 ft 452 kts 20°
2026-05-04 20:49 47.49361 -2.33888 36005 ft 452 kts 20°
2026-05-04 20:49 47.55247 -2.30582 36007 ft 453 kts 20°
2026-05-04 20:50 47.61144 -2.27272 36010 ft 453 kts 20°
2026-05-04 20:50 47.67036 -2.23959 36010 ft 453 kts 20°
2026-05-04 20:51 47.72903 -2.20648 36013 ft 453 kts 20°
2026-05-04 20:51 47.78801 -2.17318 36013 ft 453 kts 20°
2026-05-04 20:52 47.84699 -2.13980 36015 ft 453 kts 20°
2026-05-04 20:52 47.90594 -2.10621 36016 ft 453 kts 20°
2026-05-04 20:53 47.96487 -2.07262 36018 ft 453 kts 20°
2026-05-04 20:53 48.02348 -2.03917 36017 ft 454 kts 20°
2026-05-04 20:54 48.08257 -2.00540 36018 ft 454 kts 20°
2026-05-04 20:54 48.13163 -1.97718 36018 ft 454 kts 20°
2026-05-04 20:55 48.20020 -1.93776 36020 ft 454 kts 20°
2026-05-04 20:55 48.25911 -1.90373 36019 ft 453 kts 20°
2026-05-04 20:56 48.30815 -1.87540 36018 ft 454 kts 20°
2026-05-04 20:56 48.36710 -1.84135 36019 ft 453 kts 20°
2026-05-04 20:57 48.42611 -1.80705 36019 ft 453 kts 20°
2026-05-04 20:57 48.48498 -1.77265 36018 ft 453 kts 20°
2026-05-04 20:58 48.54346 -1.73848 36017 ft 453 kts 20°
2026-05-04 20:58 48.60226 -1.70417 36017 ft 453 kts 20°
2026-05-04 20:59 48.66102 -1.66974 36017 ft 453 kts 21°
2026-05-04 20:59 48.71983 -1.63505 36019 ft 453 kts 21°
2026-05-04 21:00 48.77863 -1.60013 36019 ft 453 kts 21°
2026-05-04 21:00 48.83731 -1.56498 36018 ft 453 kts 21°
2026-05-04 21:01 48.89551 -1.53004 36014 ft 452 kts 21°